Regional Weather Roundup
Issued by NWS State College, PA

Home | Current Version | Previous Version | Graphics & Text | Print | Product List | Glossary Off
Versions: 1 2 3 4 5 6 7 8 9 10 11 12 13 14 15 16 17 18 19 20 21 22 23 24 25 26 27 28 29 30 31 32 33 34 35 36 37 38 39 40 41 42 43 44 45 46 47 48 49 50

072
ASUS41 KCTP 091510
RWRCTP

REGIONAL WEATHER ROUNDUP
NATIONAL WEATHER SERVICE STATE COLLEGE PA
1000 AM EST FRI DEC 09 2016

Note: "fair" indicates few or no clouds below 12,000 feet with no
significant weather and/or obstructions to visibility.

* = STATION THAT DOES NOT REPORT PRECIPITATION /E.G. RAIN...SNOW...ETC/
    THUNDER OR FOG.

PAZ002>004-007>009-013>016-020>023-029>032-091600-
WESTERN PENNSYLVANIA

CITY           SKY/WX    TMP DP  RH WIND       PRES   REMARKS
ERIE           CLOUDY    33  18  53 W17G30    30.28R
MEADVILLE      LGT SNOW  22  19  89 SW12      30.27R VSB 3/4 WCI  10
FRANKLIN*        N/A     21  16  79 W10       30.28R WCI  10
NEW CASTLE     FLURRIES  24  19  81 W9        30.35R WCI  14
BEAVER COUNTY  NOT AVBL
BUTLER*        CLOUDY    23  16  74 W12G17    30.36R WCI  12
PITTSBURGH INT CLOUDY    25  18  74 W16       30.35R WCI  12
PITTSBURGH     CLOUDY    24  15  68 W14G21    30.34R WCI  12
INDIANA*       CLOUDY    23  19  86 W15G23    30.31R HAZE    WCI  10
LATROBE        LGT SNOW  23  18  80 W16       30.35R WCI  10
WASHINGTON CO* CLOUDY    23  16  74 SW12G23   30.37R WCI  12
$$

PAZ004>006-010>012-017>019-024>028-033>037-041-042-045-046-049>053-091600-
CENTRAL PENNSYLVANIA

CITY           SKY/WX    TMP DP  RH WIND       PRES   REMARKS
BRADFORD       SNOW      23  20  88 W13G20    30.14R VSB 1/2 WCI  11
DUBOIS         CLOUDY    23  17  78 W17G24    30.20R WCI   9
CLEARFIELD     CLOUDY    26  18  71 W10G22    30.22R
JOHNSTOWN      LGT SNOW  19  16  88 W12       30.21R FOG     WCI   7
ALTOONA        FLURRIES  25  18  74 W13G22    30.27R WCI  14
STATE COLLEGE  CLOUDY    27  18  69 W14       30.23R
WILLIAMSPORT   FLURRIES  32  21  64 W9        30.20R
SELINSGROVE    CLOUDY    32  20  61 W9G20     30.24R
FT INDIANTOWN  PTSUNNY   33  17  52 W16G29    30.23R
CAPITAL CITY   MOSUNNY   34  16  47 W15G29    30.26R
HARRISBURG     MOSUNNY   34  20  56 NW23      30.25R
YORK           MOSUNNY   32  19  58 NW15G23   30.26R
$$

PAZ038>040-043-044-047-048-054-055-060>062-067>071-091600-
EASTERN PENNSYLVANIA

CITY           SKY/WX    TMP DP  RH WIND       PRES   REMARKS
SCRANTON       CLOUDY    29  22  75 SW9       30.14R
MOUNT POCONO   LGT SNOW  24  18  77 W12G25    30.06R WCI  13
ALLENTOWN      SUNNY     34  18  52 NW18G29   30.17R
QUAKERTOWN*    SUNNY     32  18  55 NW14G26   30.16F
READING        MOSUNNY   34  18  52 NW23G31   30.20R
LANCASTER      MOSUNNY   33  20  58 NW22G32   30.22R
COATESVILLE    MOSUNNY   32  19  59 W20       30.21S
POTTSTOWN      SUNNY     33  18  53 NW21G29   30.20R
BLUE BELL      MOSUNNY   32  19  59 W10G18    30.19R
DOYLESTOWN     SUNNY     35  19  52 NW17G26   30.16R
WILLOW GROVE   NOT AVBL
NORTH PHILA    MOSUNNY   36  19  50 W16G26    30.22R
PHILADELPHIA   MOSUNNY   35  17  47 W20       30.23R
$$




USA.gov is the U.S. government's official web portal to all federal, state and local government web resources and services.